QPF
0.00 0.00 0.01 0.00 0.02 0.03 0.03 0.02 0.02 0.02 0.03 0.04 0.03 0.02 0.03 0.05 0.05 0.05 0.06 0.07 0.10 0.10 0.08 0.16 0.20 0.17 0.13 0.12 0.13 0.11 0.10 0.07 0.06 0.05 0.06 0.10 0.16 0.14 0.11 0.10 0.09 0.08 0.07
0.00 0.00 0.00 0.00 0.02 0.04 0.03 0.02 0.02 0.03 0.03 0.03 0.02 0.02 0.04 0.05 0.05 0.05 0.06 0.07 0.10 0.11 0.10 0.15 0.20 0.20 0.15 0.11 0.10 0.08 0.06 0.06 0.06 0.07 0.09 0.09 0.10 0.11 0.12 0.10 0.09 0.07 0.06
0.01 0.01 0.00 0.00 0.01 0.03 0.03 0.03 0.02 0.02 0.02 0.02 0.01 0.02 0.03 0.04 0.04 0.04 0.06 0.09 0.11 0.12 0.15 0.20 0.17 0.20 0.18 0.11 0.09 0.09 0.08 0.08 0.10 0.12 0.12 0.09 0.08 0.08 0.08 0.07 0.07 0.05 0.05
0.02 0.01 0.00 0.00 0.03 0.04 0.05 0.04 0.02 0.01 0.01 0.01 0.01 0.02 0.04 0.04 0.03 0.04 0.06 0.07 0.10 0.11 0.14 0.16 0.14 0.16 0.16 0.11 0.08 0.08 0.09 0.09 0.10 0.12 0.11 0.09 0.10 0.10 0.08 0.06 0.05 0.05 0.05
0.01 0.01 0.00 0.01 0.07 0.12 0.12 0.07 0.02 0.01 0.01 0.01 0.02 0.03 0.04 0.04 0.04 0.05 0.05 0.05 0.08 0.12 0.14 0.16 0.16 0.13 0.11 0.09 0.07 0.07 0.09 0.11 0.12 0.12 0.09 0.09 0.09 0.10 0.09 0.08 0.06 0.05 0.06
0.01 0.00 0.00 0.01 0.05 0.09 0.06 0.04 0.02 0.01 0.01 0.01 0.02 0.03 0.03 0.04 0.04 0.05 0.04 0.06 0.08 0.12 0.15 0.15 0.15 0.12 0.09 0.07 0.06 0.06 0.07 0.09 0.11 0.10 0.09 0.09 0.08 0.08 0.09 0.08 0.06 0.06 0.07
0.00 0.01 0.01 0.01 0.01 0.02 0.01 0.01 0.01 0.01 0.01 0.01 0.01 0.02 0.03 0.04 0.05 0.04 0.04 0.06 0.10 0.13 0.15 0.12 0.11 0.10 0.06 0.05 0.05 0.05 0.05 0.06 0.09 0.10 0.09 0.08 0.09 0.08 0.08 0.09 0.07 0.06 0.08
0.00 0.01 0.01 0.01 0.02 0.01 0.01 0.01 0.01 0.01 0.01 0.01 0.01 0.01 0.02 0.03 0.03 0.03 0.03 0.04 0.08 0.12 0.12 0.06 0.08 0.09 0.05 0.04 0.04 0.04 0.05 0.05 0.04 0.05 0.07 0.07 0.08 0.09 0.07 0.08 0.07 0.06 0.07
0.00 0.00 0.01 0.01 0.01 0.01 0.01 0.01 0.01 0.01 0.01 0.01 0.01 0.01 0.02 0.02 0.02 0.02 0.03 0.03 0.06 0.11 0.08 0.05 0.06 0.05 0.04 0.03 0.02 0.02 0.03 0.05 0.05 0.05 0.06 0.07 0.08 0.12 0.08 0.07 0.08 0.06 0.07
0.00 0.00 0.01 0.01 0.02 0.02 0.02 0.01 0.01 0.02 0.02 0.01 0.01 0.01 0.02 0.02 0.02 0.03 0.04 0.04 0.06 0.07 0.05 0.05 0.04 0.03 0.03 0.02 0.02 0.01 0.02 0.04 0.04 0.06 0.08 0.08 0.07 0.13 0.12 0.09 0.08 0.08 0.08
0.00 0.00 0.01 0.01 0.02 0.02 0.02 0.01 0.01 0.02 0.02 0.02 0.02 0.01 0.03 0.06 0.04 0.04 0.04 0.04 0.05 0.04 0.03 0.03 0.03 0.04 0.03 0.02 0.02 0.01 0.03 0.03 0.04 0.07 0.09 0.09 0.10 0.16 0.18 0.12 0.09 0.07 0.07
0.01 0.01 0.01 0.01 0.02 0.02 0.03 0.03 0.03 0.03 0.03 0.03 0.04 0.04 0.06 0.07 0.06 0.03 0.03 0.05 0.09 0.07 0.04 0.03 0.03 0.03 0.03 0.02 0.01 0.02 0.05 0.05 0.05 0.08 0.09 0.10 0.12 0.16 0.23 0.17 0.11 0.09 0.08
0.01 0.01 0.01 0.01 0.01 0.02 0.04 0.04 0.03 0.04 0.05 0.05 0.05 0.05 0.06 0.05 0.05 0.04 0.03 0.04 0.05 0.06 0.06 0.05 0.04 0.04 0.03 0.03 0.02 0.03 0.05 0.05 0.09 0.11 0.13 0.13 0.16 0.17 0.23 0.23 0.15 0.12 0.10
0.01 0.02 0.01 0.01 0.01 0.02 0.03 0.03 0.03 0.03 0.03 0.05 0.05 0.05 0.05 0.06 0.06 0.05 0.05 0.06 0.06 0.05 0.07 0.08 0.06 0.04 0.03 0.03 0.03 0.03 0.04 0.03 0.03 0.09 0.14 0.14 0.19 0.22 0.22 0.22 0.19 0.17 0.14
0.02 0.02 0.02 0.01 0.01 0.02 0.04 0.04 0.03 0.03 0.03 0.04 0.04 0.04 0.04 0.04 0.06 0.07 0.06 0.07 0.07 0.05 0.07 0.07 0.07 0.06 0.04 0.03 0.03 0.03 0.03 0.03 0.01 0.06 0.11 0.12 0.17 0.24 0.24 0.20 0.20 0.22 0.21
0.02 0.03 0.03 0.02 0.02 0.02 0.03 0.03 0.03 0.03 0.03 0.02 0.03 0.03 0.02 0.03 0.04 0.06 0.07 0.08 0.06 0.05 0.06 0.06 0.06 0.06 0.06 0.05 0.05 0.04 0.02 0.02 0.03 0.06 0.08 0.11 0.16 0.20 0.22 0.20 0.20 0.23 0.27
0.02 0.02 0.02 0.03 0.04 0.02 0.03 0.03 0.03 0.02 0.03 0.03 0.03 0.03 0.02 0.02 0.04 0.05 0.06 0.07 0.06 0.06 0.06 0.05 0.05 0.05 0.05 0.06 0.05 0.04 0.04 0.03 0.04 0.05 0.06 0.09 0.13 0.15 0.15 0.15 0.15 0.18 0.24
0.02 0.02 0.01 0.01 0.03 0.02 0.02 0.03 0.03 0.03 0.03 0.03 0.04 0.03 0.03 0.03 0.04 0.05 0.06 0.06 0.06 0.05 0.06 0.06 0.04 0.05 0.05 0.06 0.06 0.04 0.05 0.05 0.04 0.03 0.04 0.05 0.10 0.12 0.11 0.10 0.09 0.11 0.14
0.01 0.02 0.01 0.01 0.02 0.02 0.02 0.02 0.03 0.04 0.04 0.04 0.03 0.04 0.05 0.04 0.04 0.05 0.05 0.05 0.05 0.05 0.06 0.06 0.06 0.06 0.06 0.05 0.05 0.04 0.03 0.03 0.04 0.03 0.03 0.04 0.06 0.07 0.07 0.06 0.06 0.08 0.09
0.01 0.02 0.02 0.02 0.02 0.02 0.03 0.03 0.03 0.04 0.04 0.04 0.04 0.05 0.04 0.04 0.05 0.05 0.04 0.05 0.04 0.04 0.07 0.08 0.09 0.07 0.05 0.04 0.04 0.03 0.02 0.02 0.03 0.03 0.03 0.04 0.03 0.03 0.03 0.04 0.05 0.05 0.06
0.01 0.02 0.03 0.03 0.02 0.02 0.03 0.02 0.02 0.03 0.03 0.04 0.05 0.06 0.06 0.05 0.05 0.06 0.06 0.07 0.05 0.06 0.07 0.08 0.08 0.07 0.07 0.06 0.05 0.04 0.02 0.02 0.02 0.02 0.04 0.04 0.04 0.03 0.03 0.03 0.04 0.04 0.05
0.03 0.02 0.03 0.04 0.03 0.02 0.02 0.02 0.02 0.02 0.04 0.05 0.07 0.09 0.09 0.08 0.06 0.06 0.07 0.06 0.06 0.07 0.07 0.07 0.07 0.07 0.07 0.06 0.05 0.06 0.06 0.04 0.02 0.01 0.03 0.02 0.02 0.02 0.02 0.02 0.03 0.05 0.05
0.08 0.06 0.04 0.05 0.04 0.03 0.02 0.02 0.02 0.03 0.03 0.07 0.09 0.08 0.08 0.09 0.08 0.06 0.07 0.07 0.07 0.07 0.06 0.06 0.05 0.06 0.07 0.06 0.05 0.06 0.07 0.07 0.05 0.03 0.02 0.01 0.02 0.02 0.02 0.02 0.03 0.04 0.04
0.15 0.11 0.05 0.07 0.07 0.04 0.03 0.02 0.02 0.02 0.01 0.05 0.06 0.07 0.07 0.12 0.09 0.05 0.06 0.06 0.06 0.06 0.07 0.05 0.05 0.06 0.06 0.05 0.06 0.07 0.07 0.08 0.08 0.06 0.03 0.02 0.02 0.02 0.03 0.02 0.03 0.04 0.03
0.14 0.08 0.03 0.05 0.10 0.08 0.04 0.03 0.02 0.01 0.02 0.02 0.02 0.03 0.03 0.03 0.03 0.03 0.03 0.03 0.02 0.03 0.04 0.05 0.06 0.05 0.04 0.04 0.04 0.06 0.08 0.08 0.07 0.07 0.06 0.05 0.04 0.03 0.05 0.05 0.04 0.03 0.04
0.04 0.03 0.03 0.03 0.06 0.09 0.05 0.03 0.03 0.03 0.03 0.02 0.03 0.03 0.04 0.03 0.03 0.02 0.02 0.02 0.02 0.02 0.03 0.04 0.06 0.04 0.04 0.05 0.05 0.05 0.07 0.07 0.07 0.09 0.08 0.07 0.06 0.04 0.04 0.05 0.05 0.05 0.05
MSLP
1006.02 1005.98 1006.07 1006.30 1006.62 1006.95 1007.19 1007.27 1007.14 1006.81 1006.32 1005.77 1005.25 1004.82 1004.51 1004.29 1004.09 1003.80 1003.31 1002.56 1001.53 1000.26 998.86 997.49 996.31 995.47 995.08 995.19 995.76 996.71 997.92 999.26 1000.61 1001.87 1002.99 1003.97 1004.81 1005.58 1006.29 1006.99 1007.67 1008.34 1008.97
1006.06 1006.13 1006.32 1006.62 1006.95 1007.26 1007.46 1007.48 1007.32 1006.99 1006.54 1006.07 1005.64 1005.31 1005.07 1004.90 1004.72 1004.43 1003.96 1003.24 1002.28 1001.12 999.87 998.66 997.63 996.91 996.59 996.69 997.19 998.03 999.10 1000.29 1001.50 1002.65 1003.70 1004.62 1005.44 1006.18 1006.87 1007.52 1008.14 1008.72 1009.25
1005.97 1006.18 1006.48 1006.84 1007.21 1007.50 1007.67 1007.67 1007.50 1007.20 1006.82 1006.44 1006.11 1005.87 1005.70 1005.57 1005.39 1005.11 1004.65 1003.98 1003.13 1002.13 1001.08 1000.10 999.27 998.72 998.49 998.60 999.03 999.73 1000.62 1001.62 1002.64 1003.63 1004.56 1005.39 1006.15 1006.83 1007.46 1008.05 1008.61 1009.11 1009.57
1005.78 1006.11 1006.52 1006.97 1007.38 1007.69 1007.86 1007.86 1007.71 1007.46 1007.16 1006.88 1006.65 1006.49 1006.37 1006.24 1006.06 1005.76 1005.31 1004.71 1003.98 1003.17 1002.36 1001.62 1001.04 1000.67 1000.55 1000.68 1001.05 1001.61 1002.31 1003.10 1003.92 1004.74 1005.51 1006.23 1006.90 1007.50 1008.07 1008.59 1009.07 1009.52 1009.92
1005.52 1005.97 1006.50 1007.03 1007.50 1007.85 1008.04 1008.06 1007.96 1007.78 1007.57 1007.38 1007.24 1007.13 1007.03 1006.90 1006.68 1006.36 1005.92 1005.37 1004.76 1004.14 1003.57 1003.09 1002.74 1002.56 1002.55 1002.70 1003.01 1003.44 1003.97 1004.57 1005.20 1005.85 1006.49 1007.09 1007.66 1008.18 1008.66 1009.11 1009.52 1009.91 1010.28
1005.27 1005.82 1006.44 1007.06 1007.59 1007.99 1008.22 1008.30 1008.26 1008.15 1008.03 1007.93 1007.85 1007.78 1007.68 1007.52 1007.26 1006.90 1006.45 1005.95 1005.45 1005.00 1004.63 1004.37 1004.23 1004.21 1004.29 1004.47 1004.72 1005.05 1005.44 1005.89 1006.38 1006.90 1007.42 1007.93 1008.41 1008.85 1009.25 1009.62 1009.96 1010.29 1010.62
1005.07 1005.69 1006.38 1007.08 1007.68 1008.13 1008.42 1008.55 1008.58 1008.55 1008.51 1008.48 1008.46 1008.41 1008.30 1008.10 1007.80 1007.39 1006.93 1006.47 1006.05 1005.72 1005.51 1005.42 1005.43 1005.52 1005.67 1005.85 1006.07 1006.32 1006.62 1006.97 1007.37 1007.81 1008.27 1008.72 1009.13 1009.50 1009.82 1010.10 1010.37 1010.64 1010.93
1004.95 1005.61 1006.36 1007.10 1007.75 1008.25 1008.59 1008.78 1008.88 1008.92 1008.95 1008.98 1008.99 1008.97 1008.85 1008.62 1008.28 1007.86 1007.39 1006.94 1006.58 1006.33 1006.22 1006.23 1006.34 1006.49 1006.66 1006.84 1007.02 1007.22 1007.47 1007.78 1008.15 1008.57 1009.01 1009.43 1009.81 1010.13 1010.38 1010.58 1010.76 1010.95 1011.18
1004.92 1005.59 1006.36 1007.13 1007.80 1008.34 1008.71 1008.95 1009.10 1009.20 1009.28 1009.37 1009.42 1009.41 1009.30 1009.07 1008.72 1008.29 1007.83 1007.41 1007.08 1006.89 1006.82 1006.88 1007.00 1007.16 1007.33 1007.48 1007.63 1007.81 1008.04 1008.35 1008.74 1009.18 1009.65 1010.08 1010.45 1010.73 1010.92 1011.04 1011.13 1011.24 1011.39
1004.95 1005.62 1006.38 1007.14 1007.82 1008.36 1008.75 1009.01 1009.19 1009.34 1009.47 1009.60 1009.69 1009.72 1009.64 1009.43 1009.11 1008.70 1008.27 1007.88 1007.59 1007.42 1007.37 1007.42 1007.53 1007.66 1007.78 1007.89 1008.02 1008.18 1008.42 1008.76 1009.19 1009.69 1010.20 1010.66 1011.04 1011.29 1011.43 1011.48 1011.48 1011.50 1011.57
1005.04 1005.69 1006.42 1007.15 1007.80 1008.31 1008.69 1008.96 1009.16 1009.33 1009.49 1009.66 1009.79 1009.86 1009.83 1009.68 1009.42 1009.07 1008.70 1008.36 1008.10 1007.95 1007.90 1007.92 1007.99 1008.07 1008.14 1008.21 1008.30 1008.46 1008.72 1009.09 1009.57 1010.12 1010.68 1011.18 1011.56 1011.80 1011.90 1011.89 1011.81 1011.74 1011.72
1005.17 1005.79 1006.48 1007.16 1007.75 1008.23 1008.58 1008.83 1009.02 1009.20 1009.38 1009.58 1009.75 1009.87 1009.90 1009.82 1009.64 1009.38 1009.09 1008.82 1008.62 1008.49 1008.43 1008.43 1008.46 1008.48 1008.50 1008.53 1008.60 1008.75 1009.02 1009.42 1009.93 1010.50 1011.09 1011.60 1011.99 1012.22 1012.29 1012.23 1012.10 1011.97 1011.87
1005.35 1005.94 1006.58 1007.19 1007.73 1008.14 1008.45 1008.67 1008.85 1009.02 1009.21 1009.42 1009.62 1009.79 1009.88 1009.88 1009.79 1009.63 1009.43 1009.25 1009.10 1009.01 1008.97 1008.96 1008.96 1008.95 1008.93 1008.93 1008.98 1009.13 1009.39 1009.78 1010.28 1010.85 1011.42 1011.92 1012.30 1012.51 1012.57 1012.50 1012.34 1012.17 1012.02
1005.59 1006.15 1006.74 1007.29 1007.75 1008.11 1008.37 1008.56 1008.72 1008.88 1009.06 1009.27 1009.48 1009.68 1009.81 1009.88 1009.87 1009.80 1009.70 1009.61 1009.53 1009.50 1009.48 1009.48 1009.48 1009.46 1009.44 1009.43 1009.47 1009.59 1009.83 1010.19 1010.65 1011.16 1011.68 1012.13 1012.47 1012.67 1012.72 1012.65 1012.50 1012.33 1012.17
1005.89 1006.43 1006.97 1007.46 1007.87 1008.18 1008.41 1008.57 1008.71 1008.85 1009.02 1009.21 1009.42 1009.61 1009.77 1009.87 1009.92 1009.93 1009.91 1009.89 1009.89 1009.91 1009.95 1009.98 1010.01 1010.01 1010.00 1010.00 1010.04 1010.14 1010.34 1010.64 1011.01 1011.43 1011.86 1012.23 1012.51 1012.67 1012.73 1012.69 1012.58 1012.45 1012.32
1006.24 1006.77 1007.27 1007.72 1008.09 1008.37 1008.58 1008.74 1008.87 1009.00 1009.15 1009.31 1009.48 1009.65 1009.79 1009.90 1009.98 1010.03 1010.07 1010.11 1010.18 1010.26 1010.34 1010.43 1010.50 1010.54 1010.57 1010.60 1010.65 1010.74 1010.89 1011.10 1011.37 1011.67 1011.97 1012.23 1012.44 1012.57 1012.63 1012.63 1012.59 1012.53 1012.46
1006.63 1007.14 1007.62 1008.03 1008.38 1008.66 1008.88 1009.05 1009.19 1009.32 1009.45 1009.57 1009.70 1009.82 1009.92 1010.00 1010.07 1010.13 1010.20 1010.29 1010.40 1010.53 1010.67 1010.81 1010.93 1011.03 1011.11 1011.18 1011.24 1011.32 1011.43 1011.56 1011.71 1011.88 1012.04 1012.19 1012.31 1012.40 1012.47 1012.52 1012.56 1012.59 1012.61
1007.02 1007.51 1007.96 1008.35 1008.70 1008.99 1009.24 1009.45 1009.62 1009.76 1009.88 1009.98 1010.05 1010.11 1010.15 1010.19 1010.23 1010.28 1010.36 1010.47 1010.61 1010.77 1010.95 1011.13 1011.30 1011.45 1011.58 1011.69 1011.78 1011.86 1011.93 1011.99 1012.04 1012.09 1012.13 1012.16 1012.20 1012.26 1012.33 1012.43 1012.55 1012.67 1012.77
1007.37 1007.84 1008.26 1008.64 1008.99 1009.31 1009.61 1009.87 1010.08 1010.26 1010.38 1010.45 1010.48 1010.48 1010.47 1010.46 1010.46 1010.49 1010.56 1010.68 1010.83 1011.01 1011.21 1011.42 1011.62 1011.81 1011.98 1012.13 1012.25 1012.34 1012.38 1012.40 1012.38 1012.33 1012.26 1012.21 1012.18 1012.20 1012.28 1012.41 1012.59 1012.79 1012.97
1007.65 1008.09 1008.49 1008.86 1009.22 1009.58 1009.92 1010.24 1010.51 1010.72 1010.86 1010.93 1010.93 1010.89 1010.84 1010.78 1010.76 1010.77 1010.84 1010.95 1011.11 1011.29 1011.49 1011.71 1011.92 1012.13 1012.32 1012.49 1012.63 1012.74 1012.79 1012.78 1012.72 1012.62 1012.49 1012.37 1012.30 1012.29 1012.36 1012.51 1012.74 1012.99 1013.22
1007.85 1008.28 1008.65 1009.01 1009.38 1009.76 1010.15 1010.53 1010.85 1011.11 1011.28 1011.35 1011.35 1011.29 1011.22 1011.15 1011.11 1011.13 1011.20 1011.31 1011.47 1011.65 1011.83 1012.03 1012.22 1012.42 1012.61 1012.79 1012.95 1013.07 1013.14 1013.14 1013.08 1012.96 1012.82 1012.67 1012.56 1012.53 1012.59 1012.75 1012.98 1013.26 1013.53
1008.00 1008.40 1008.76 1009.10 1009.46 1009.87 1010.29 1010.71 1011.09 1011.39 1011.59 1011.69 1011.70 1011.65 1011.58 1011.52 1011.51 1011.54 1011.63 1011.76 1011.92 1012.08 1012.24 1012.40 1012.56 1012.72 1012.88 1013.06 1013.22 1013.36 1013.45 1013.49 1013.46 1013.36 1013.22 1013.08 1012.96 1012.91 1012.96 1013.10 1013.33 1013.60 1013.86
1008.09 1008.49 1008.83 1009.16 1009.52 1009.93 1010.37 1010.82 1011.23 1011.57 1011.80 1011.93 1011.97 1011.95 1011.92 1011.90 1011.92 1011.99 1012.12 1012.27 1012.43 1012.59 1012.72 1012.83 1012.94 1013.04 1013.17 1013.31 1013.46 1013.61 1013.74 1013.82 1013.83 1013.78 1013.68 1013.56 1013.45 1013.39 1013.41 1013.53 1013.72 1013.96 1014.21
1008.12 1008.56 1008.91 1009.23 1009.58 1009.99 1010.43 1010.89 1011.32 1011.68 1011.94 1012.10 1012.18 1012.21 1012.22 1012.25 1012.32 1012.45 1012.62 1012.80 1012.98 1013.13 1013.24 1013.30 1013.35 1013.40 1013.47 1013.57 1013.70 1013.85 1014.00 1014.12 1014.19 1014.19 1014.14 1014.05 1013.96 1013.90 1013.89 1013.97 1014.11 1014.31 1014.52
1008.10 1008.59 1008.97 1009.31 1009.66 1010.06 1010.50 1010.95 1011.39 1011.76 1012.05 1012.24 1012.35 1012.42 1012.48 1012.56 1012.70 1012.87 1013.09 1013.31 1013.51 1013.66 1013.75 1013.78 1013.78 1013.78 1013.79 1013.85 1013.95 1014.09 1014.26 1014.41 1014.52 1014.57 1014.57 1014.51 1014.43 1014.37 1014.34 1014.37 1014.46 1014.61 1014.77
1007.97 1008.54 1008.98 1009.36 1009.73 1010.13 1010.57 1011.02 1011.45 1011.83 1012.13 1012.35 1012.50 1012.60 1012.70 1012.84 1013.01 1013.24 1013.49 1013.75 1013.97 1014.13 1014.21 1014.23 1014.20 1014.16 1014.13 1014.15 1014.22 1014.35 1014.51 1014.68 1014.82 1014.91 1014.94 1014.91 1014.84 1014.77 1014.71 1014.70 1014.74 1014.83 1014.95
Thickness
5818 5814 5808 5804 5800 5797 5794 5791 5789 5787 5785 5783 5782 5781 5780 5778 5778 5777 5775 5774 5773 5772 5771 5769 5768 5767 5767 5766 5766 5765 5764 5763 5763 5762 5761 5760 5759 5759 5758 5757 5757 5755 5754
5821 5813 5806 5803 5799 5796 5793 5790 5788 5785 5783 5781 5780 5779 5777 5776 5775 5774 5773 5772 5771 5769 5768 5767 5766 5765 5765 5764 5764 5763 5762 5761 5761 5760 5759 5759 5758 5757 5757 5756 5756 5754 5753
5821 5812 5805 5801 5798 5794 5791 5789 5786 5784 5782 5780 5778 5777 5775 5774 5773 5772 5771 5769 5768 5767 5765 5764 5764 5763 5763 5763 5762 5762 5761 5760 5759 5759 5758 5758 5756 5756 5755 5754 5754 5753 5752
5821 5813 5805 5800 5797 5793 5790 5787 5785 5782 5780 5778 5776 5775 5774 5772 5771 5770 5769 5768 5766 5765 5764 5763 5762 5761 5761 5761 5761 5760 5759 5759 5758 5758 5758 5757 5756 5755 5753 5752 5751 5751 5750
5821 5812 5803 5799 5796 5793 5789 5786 5783 5781 5778 5776 5774 5773 5772 5771 5770 5769 5768 5766 5765 5764 5763 5762 5760 5760 5759 5759 5759 5758 5758 5758 5758 5757 5758 5757 5755 5753 5752 5751 5750 5749 5749
5819 5810 5802 5797 5793 5790 5787 5784 5782 5779 5776 5774 5773 5771 5770 5769 5768 5767 5766 5765 5763 5762 5761 5760 5758 5758 5758 5757 5757 5757 5757 5757 5757 5758 5757 5756 5753 5752 5751 5750 5749 5748 5748
5818 5809 5801 5796 5793 5789 5786 5783 5780 5777 5775 5773 5771 5769 5768 5767 5766 5765 5764 5763 5762 5760 5759 5758 5757 5757 5756 5756 5756 5756 5756 5757 5757 5758 5756 5755 5753 5751 5750 5749 5749 5748 5747
5818 5809 5800 5795 5792 5788 5785 5782 5779 5776 5774 5772 5769 5768 5766 5765 5764 5763 5762 5761 5760 5759 5758 5757 5756 5756 5755 5755 5755 5755 5756 5756 5758 5758 5756 5753 5752 5750 5749 5749 5749 5748 5747
5819 5810 5802 5796 5791 5787 5784 5781 5778 5775 5773 5770 5768 5767 5765 5764 5763 5762 5761 5759 5758 5757 5756 5756 5755 5755 5755 5754 5754 5755 5755 5756 5755 5756 5754 5752 5751 5750 5750 5750 5749 5749 5747
5819 5812 5805 5799 5793 5788 5784 5780 5777 5774 5772 5770 5768 5766 5764 5763 5762 5761 5760 5758 5757 5756 5755 5754 5754 5754 5754 5754 5754 5754 5755 5755 5755 5755 5753 5751 5750 5750 5751 5750 5750 5748 5746
5816 5812 5807 5802 5797 5793 5787 5781 5777 5774 5771 5769 5767 5765 5764 5763 5762 5761 5760 5758 5757 5756 5755 5754 5753 5753 5753 5754 5754 5754 5754 5755 5755 5754 5751 5750 5749 5750 5751 5750 5749 5747 5745
5812 5811 5809 5803 5799 5795 5790 5783 5780 5777 5772 5770 5768 5766 5764 5764 5763 5762 5759 5757 5756 5755 5754 5754 5753 5753 5753 5754 5755 5754 5754 5755 5754 5752 5749 5749 5749 5750 5750 5749 5747 5746 5744
5814 5811 5809 5804 5800 5796 5790 5785 5782 5779 5774 5771 5769 5766 5764 5763 5762 5761 5758 5756 5755 5754 5754 5754 5753 5753 5754 5754 5754 5754 5754 5754 5753 5751 5748 5748 5748 5749 5748 5747 5746 5745 5744
5813 5809 5807 5804 5799 5795 5790 5786 5782 5779 5775 5772 5769 5766 5764 5762 5761 5760 5758 5756 5755 5756 5755 5755 5754 5754 5754 5754 5754 5754 5754 5753 5751 5749 5746 5746 5747 5747 5746 5745 5746 5745 5743
5811 5808 5805 5803 5797 5793 5789 5785 5782 5779 5775 5772 5769 5766 5764 5762 5760 5759 5757 5756 5755 5756 5755 5754 5753 5753 5753 5753 5753 5753 5752 5751 5750 5748 5745 5744 5745 5745 5744 5744 5745 5745 5742
5810 5806 5804 5800 5795 5791 5787 5783 5781 5778 5775 5772 5768 5765 5763 5761 5759 5758 5755 5754 5754 5755 5754 5754 5753 5751 5751 5751 5750 5750 5749 5749 5748 5746 5744 5742 5742 5742 5743 5743 5743 5742 5741
5809 5806 5802 5798 5793 5789 5785 5782 5780 5777 5774 5771 5767 5764 5762 5760 5758 5756 5754 5752 5753 5753 5753 5753 5752 5751 5750 5749 5748 5747 5747 5747 5746 5745 5743 5741 5740 5740 5740 5740 5740 5739 5738
5808 5802 5799 5797 5791 5786 5783 5781 5779 5776 5773 5770 5766 5763 5760 5758 5756 5755 5752 5751 5751 5751 5751 5749 5749 5747 5745 5745 5744 5744 5745 5744 5744 5743 5742 5741 5740 5739 5737 5737 5736 5735 5734
5805 5800 5795 5793 5789 5784 5781 5778 5777 5774 5771 5768 5765 5761 5758 5756 5754 5752 5751 5749 5749 5749 5748 5747 5746 5744 5741 5741 5741 5741 5741 5742 5742 5742 5741 5740 5740 5739 5737 5735 5734 5733 5732
5803 5797 5793 5789 5785 5782 5778 5775 5773 5771 5768 5766 5763 5759 5756 5754 5752 5750 5749 5747 5746 5745 5744 5744 5742 5741 5740 5739 5739 5738 5739 5740 5740 5740 5740 5740 5739 5738 5737 5736 5734 5732 5731
5798 5793 5788 5784 5781 5778 5774 5770 5767 5764 5763 5762 5759 5756 5754 5752 5751 5748 5746 5744 5742 5741 5741 5741 5740 5738 5736 5737 5733 5731 5734 5738 5739 5739 5739 5738 5737 5738 5737 5736 5734 5732 5730
5792 5788 5785 5781 5778 5775 5772 5770 5767 5764 5761 5759 5757 5754 5752 5750 5748 5747 5743 5742 5741 5739 5739 5738 5736 5734 5734 5735 5730 5725 5723 5726 5732 5737 5735 5735 5736 5736 5736 5735 5734 5732 5730
5786 5783 5781 5778 5775 5772 5771 5768 5765 5761 5758 5755 5752 5750 5749 5747 5745 5744 5742 5740 5738 5737 5735 5734 5734 5731 5728 5731 5731 5725 5718 5716 5721 5728 5731 5733 5734 5733 5733 5733 5732 5731 5730
5783 5780 5777 5774 5771 5769 5767 5764 5760 5755 5751 5750 5749 5748 5746 5745 5743 5741 5740 5738 5736 5735 5733 5732 5732 5730 5728 5725 5727 5728 5726 5724 5717 5716 5723 5728 5730 5729 5729 5730 5730 5729 5728
5782 5778 5774 5770 5766 5764 5763 5761 5757 5753 5751 5750 5748 5745 5743 5741 5740 5738 5736 5734 5733 5731 5730 5729 5728 5727 5726 5724 5723 5723 5723 5723 5722 5714 5712 5718 5722 5725 5726 5726 5727 5727 5726
5778 5774 5770 5765 5761 5760 5758 5756 5753 5749 5747 5745 5743 5740 5739 5738 5736 5735 5734 5731 5729 5728 5727 5726 5725 5723 5723 5722 5721 5721 5719 5717 5716 5715 5712 5713 5714 5719 5723 5724 5724 5724 5723